Regional Weather Roundup
Issued by NWS

Home | Current Version | Previous Version | Graphics & Text | Print | Product List | Glossary On
Versions: 1 2 3 4 5 6 7 8 9 10 11 12 13 14 15 16 17 18 19 20 21 22 23 24 25 26 27 28 29 30 31 32 33 34 35 36 37 38 39 40 41 42 43 44 45 46 47 48 49 50
890
ASUS44 KJAN 310803
RWRMS

MISSISSIPPI HOURLY WEATHER ROUNDUP
NATIONAL WEATHER SERVICE JACKSON MS
300 AM CDT THU JUL 31 2014

NOTE: "FAIR: INDICATES FEW OR NO CLOUDS BELOW 12,000 FEET WITH NO
SIGNIFICANT WEATHER AND/OR OBSTRUCTIONS TO VISIBILITY.

MSZ001>002-007>008-010>013-018>021-025>028-034>036-310900-
NORTHWEST MISSISSIPPI

CITY           SKY/WX    TMP DP  RH WIND       PRES   REMARKS
CLARKSDALE     CLOUDY    70  70 100 NE7       30.07S
CLEVELAND      CLOUDY    70  69  98 N3        30.05R
GREENWOOD      CLOUDY    72  66  81 E3        30.04F
GREENVILLE     CLOUDY    71  68  90 N5        30.05R
GRENADA        CLOUDY    68  64  88 CALM      30.06S
OLIVE BRANCH   CLOUDY    68  68 100 CALM      30.08S
OXFORD         FAIR      66  64  94 CALM      30.09S
TUNICA         DRIZZLE   70  68  94 N3        30.08S
$$

MSZ003>006-009-014>017-022>024-029>033-037>039-310900-
NORTHEAST MISSISSIPPI

CITY           SKY/WX    TMP DP  RH WIND       PRES   REMARKS
BELMONT        FAIR      67  65  95 CALM      30.08S
COLUMBUS AFB   CLOUDY    69  63  80 NE1       30.05F
CORINTH        PTSUNNY   68  66  94 CALM      30.07S
GOLDN TRIANGLE CLOUDY    68  61  77 N5        30.06S
STARKVILLE     FAIR      68  63  83 CALM      30.05F
TUPELO         CLOUDY    70  64  81 NE5       30.06F
$$

MSZ040-058-310900-
CENTRAL MISSISSIPPI

CITY           SKY/WX    TMP DP  RH WIND       PRES   REMARKS
JACKSON INTL   CLOUDY    71  62  73 CALM      30.04S
JACKSON HAWKNS CLOUDY    73  59  61 CALM      30.04S
MERIDIAN KEY   MOCLDY    66  61  84 CALM      30.04F
MERIDIAN NAS   MOCLDY    67  61  81 NW3       30.04F
RAYMOND        FAIR      68  64  88 CALM      30.04S
VICKSBURG      MOCLDY    73  64  73 E3        30.03S
$$

MSZ059>079-310900-
SOUTH MISSISSIPPI

CITY           SKY/WX    TMP DP  RH WIND       PRES   REMARKS
BROOKHAVEN     FAIR      70  63  78 CALM      30.05R
COLUMBIA       FAIR      66  66 100 CALM      30.01F
HATTIESBURG    PTCLDY    67  63  87 CALM      30.03F
MCCOMB         CLOUDY    71  61  70 NE3       30.03S
NATCHEZ        CLOUDY    70  63  78 NE5       30.03F
PINE BELT      PTCLDY    64  59  82 CALM      30.04S
$$

MSZ080>082-310900-
COASTAL MISSISSIPPI

CITY           SKY/WX    TMP DP  RH WIND       PRES   REMARKS
BILOXI         CLEAR     71  62  73 N1        30.00F
PASCAGOULA     CLEAR     63  62  97 CALM      30.00F
GULFPORT       CLEAR     72  62  71 CALM      29.99F
$$



USA.gov is the U.S. government's official web portal to all federal, state and local government web resources and services.